Regional Weather Roundup
Issued by NWS

Home | Current Version | Previous Version | Graphics & Text | Print | Product List | Glossary On
Versions: 1 2 3 4 5 6 7 8 9 10 11 12 13 14 15 16 17 18 19 20 21 22 23 24 25 26 27 28 29 30 31 32 33 34 35 36 37 38 39 40 41 42 43 44 45 46 47 48 49 50
604
ASUS43 KIND 190559
RWRIN

WEATHER ROUNDUP FOR INDIANA
NATIONAL WEATHER SERVICE INDIANAPOLIS IN
100 AM EST SUN NOV 19 2017

NOTE: "FAIR" INDICATES FEW OR NO CLOUDS BELOW 12,000 FEET WITH NO
SIGNIFICANT WEATHER AND/OR OBSTRUCTIONS TO VISIBILITY.

* - STATION DOES NOT REPORT WEATHER SUCH AS PRECIPITATION OR FOG.

+ - STATION NOT QUALITY CONTROLLED BY THE NATIONAL WEATHER SERVICE.
    USE DATA WITH CAUTION...ESPECIALLY DEWPOINT AND RELATIVE
    HUMIDITY OBSERVATIONS.

INZ001>003-010>013-019-020-190700-
NORTHWEST INDIANA

CITY           SKY/WX    TMP DP  RH WIND       PRES   REMARKS
KNOX *+        CLOUDY    37  32  81 NW14G21   29.80R WCI  29
MICHIGAN CITY+ CLOUDY    37  30  75 NW10G20   29.81R WCI  30
MONTICELLO +   CLOUDY    37  31  78 NW13      29.82R WCI  29
6HR MIN TEMP:  37; 6HR MAX TEMP:  41;

VALPARAISO     CLOUDY    40  30  67 NW14G21   29.81R WCI  32

$$

LMZ046-743>745-190700-
SOUTHERN LAKE MICHIGAN

STATION/POSITION TIME  TEMP    WIND        PRES    WAVE
                       AIR SEA DIR/SP/G            HT
                 (UTC) (F)     (DEG/KT/KT) (MB)    (FT)
BURNS HARBOR     0540   40     320/ 22/ 28 1010.2R
MICHIGAN CITY    0530   40     300/ 24/ 28   N/A

$$

INZ004-005-014>016-021>024-190700-
NORTH CENTRAL INDIANA

CITY           SKY/WX    TMP DP  RH WIND       PRES   REMARKS
GOSHEN         CLOUDY    39  30  70 NW16G26   29.73R WCI  30
6HR MIN TEMP:  38; 6HR MAX TEMP:  41; 6HR PCP:  0.01;

PERU/GRISSOM   CLOUDY    38  33  82 W13G25    29.78R WCI  30
6HR MIN TEMP:  38; 6HR MAX TEMP:  42; 6HR PCP:  0.06;

SOUTH BEND     CLOUDY    38  30  73 NW12      29.78R WCI  30
6HR MIN TEMP:  38; 6HR MAX TEMP:  41; 6HR PCP:  0.05;

WARSAW +       CLOUDY    37  32  81 NW20G29   29.74R WCI  27

$$

INZ006>009-017-018-025>027-190700-
NORTHEAST INDIANA

CITY           SKY/WX    TMP DP  RH WIND       PRES   REMARKS
AUBURN +       CLOUDY    37  32  81 NW15G25   29.70R WCI  28
FORT WAYNE     CLOUDY    41  35  79 NW13      29.72R
6HR MIN TEMP:  40; 6HR MAX TEMP:  42; 6HR PCP:  0.03;

KENDALLVILLE + CLOUDY    37  34  87 NW10G21   29.70R WCI  30

$$

INZ028-029-035-036-043>045-051>053-190700-
WEST CENTRAL INDIANA

CITY           SKY/WX    TMP DP  RH WIND       PRES   REMARKS
LAFAYETTE      CLOUDY    38  31  76 NW16G24   29.86R WCI  29
6HR MIN TEMP:  38; 6HR MAX TEMP:  39; 6HR PCP: TRACE;

TERRE HAUTE    CLOUDY    39  33  79 NW9       29.91R WCI  33
6HR MIN TEMP:  38; 6HR MAX TEMP:  41; 6HR PCP:  0.01;


$$

INZ030>032-037>040-046>048-054>057-064-065-190700-
CENTRAL INDIANA

CITY           SKY/WX    TMP DP  RH WIND       PRES   REMARKS
FRANKFORT +    CLOUDY    40  34  77 NW15      29.85R WCI  32
6HR MIN TEMP:  40; 6HR MAX TEMP:  42; 6HR PCP:  0.01;

INDIANAPOLIS   CLOUDY    39  32  76 W15       29.85R WCI  31
6HR MIN TEMP:  39; 6HR MAX TEMP:  40; 6HR PCP:  0.03;

-EAGLE CREEK   CLOUDY    39  32  76 NW15      29.84R WCI  31
6HR MIN TEMP:  39; 6HR MAX TEMP:  41; 6HR PCP:  0.04;

KOKOMO +       CLOUDY    38  32  79 W20       29.80R WCI  28
6HR MIN TEMP:  38; 6HR MAX TEMP:  42; 6HR PCP:  0.06;

MT COMFORT *+  CLOUDY    37  34  87 NW16G25   29.82R WCI  28
SHELBYVILLE    CLOUDY    40  31  70 W18G29    29.82R WCI  31
6HR MIN TEMP:  40; 6HR MAX TEMP:  44; 6HR PCP:  0.15;


$$

INZ033-034-041-042-049-050-058-059-190700-
EAST CENTRAL INDIANA

CITY           SKY/WX    TMP DP  RH WIND       PRES   REMARKS
MUNCIE         CLOUDY    40  34  79 NW15G23   29.76R WCI  32
6HR MIN TEMP:  40; 6HR MAX TEMP:  43; 6HR PCP:  0.07;

RICHMOND +     CLOUDY    37  36  93 NW17G26   29.74R WCI  28

$$

INZ060-061-067>069-081>083-085>088-190700-
SOUTHWEST INDIANA

CITY           SKY/WX    TMP DP  RH WIND       PRES   REMARKS
EVANSVILLE     CLOUDY    42  36  79 NW10G18   29.98R
6HR MIN TEMP:  39; 6HR MAX TEMP:  43; 6HR PCP: TRACE;

HUNTINGBURG +  CLOUDY    41  33  73 NW15      29.94R
6HR MIN TEMP:  38; 6HR MAX TEMP:  42; 6HR PCP:  0.02;


$$

INZ062-063-066-070>080-084-089>092-190700-
SOUTH CENTRAL AND SOUTHEAST INDIANA

CITY           SKY/WX    TMP DP  RH WIND       PRES   REMARKS
BLOOMINGTON    CLOUDY    39  29  67 VRB7G17   29.88R WCI  34
6HR MIN TEMP:  38; 6HR MAX TEMP:  41; 6HR PCP:  0.06;

MADISON *+     CLOUDY    41  34  75 W10       29.87R
SEYMOUR +      CLOUDY    41  32  70 NW16G23   29.86R

$$





USA.gov is the U.S. government's official web portal to all federal, state and local government web resources and services.